Home   Weather   Durban   Past weeks

Flag for South Africa Past Weather in Durban, South Africa — Yesterday and Last 2 Weeks

Now
55 °F

Light rain. Mostly cloudy.


Feels Like: 52 °F
Forecast: 54 / 74 °F
Wind: 12 mph from Southwest

Location: King Shaka International Airport

Current Time: Aug 20, 2017 at 2:39:42 am

Latest Report: Aug 20, 2017 at 2:00 am


Visibility: 6 mi

Pressure: 30.42 "Hg

Humidity: 82%

Dew Point: 50 °F

Location of DurbanLocation

Past Weather in Durban — Graph

°F

Durban Temperature Yesterday

Maximum temperature yesterday: 68 °F (at 1:01 pm)
Minimum temperature yesterday: 54 °F (at 4:00 am)
Average temperature yesterday: 60 °F

High & Low Weather Summary for the Past Weeks

 TemperatureHumidityPressure
High84 °F (Aug 11, 11:31 am)88% (Aug 5, 1:00 am)30.54 "Hg (Aug 5, 1:00 am)
Low50 °F (Aug 5, 6:17 am)30% (Aug 15, 11:48 am)29.71 "Hg (Aug 16, 4:00 pm)
Average64 °F66%30.15 "Hg
* Reported Aug 5 1:00 am — Aug 20 1:00 am, Durban. Weather by CustomWeather, © 2017

Note: Actual official high and low records may vary slightly from our data, if they occured in-between our weather recording intervals... More about our weather records

Advertising

Durban Weather History for the Previous 24 Hours

Scroll right to see more
 ConditionsComfort  
Time TempWeatherWind HumidityBarometerVisibility
1:00 am
Sun, Aug 20
55 °FMostly cloudy.8 mph82%30.45 "HgN/A
12:00 am55 °FMostly cloudy.8 mph82%30.45 "HgN/A
11:00 pm
Sat, Aug 19
57 °FPassing clouds.6 mph82%30.48 "HgN/A
10:00 pm57 °FLight rain. Mostly cloudy.3 mph82%30.48 "HgN/A
9:00 pm59 °FLight rain. Partly cloudy.2 mph77%30.48 "HgN/A
8:00 pm61 °FPassing clouds.5 mph68%30.48 "HgN/A
7:00 pm61 °FLight rain. Partly cloudy.7 mph68%30.48 "HgN/A
6:00 pm63 °FPassing clouds.8 mph52%30.45 "HgN/A
5:00 pm64 °FPassing clouds.10 mph52%30.45 "HgN/A
4:00 pm66 °FPassing clouds.10 mph46%30.45 "HgN/A
3:00 pm64 °FPassing clouds.10 mph52%30.45 "HgN/A
2:00 pm66 °FScattered clouds.10 mph43%30.45 "HgN/A
1:01 pm68 °FScattered clouds.12 mph38%30.45 "HgN/A
12:00 pm66 °FScattered clouds.12 mph40%30.48 "HgN/A
11:00 am63 °FSunny.12 mph45%30.51 "Hg10 mi
10:00 am64 °FScattered clouds.14 mph46%30.51 "HgN/A
9:00 am59 °FScattered clouds.13 mph55%30.51 "HgN/A
8:00 am55 °FLight rain. Mostly cloudy.12 mph67%30.54 "Hg6 mi
7:00 am57 °FPartly sunny.12 mph55%30.48 "HgN/A
6:00 am55 °FPassing clouds.12 mph55%30.48 "HgN/A
5:00 am55 °FPassing clouds.14 mph59%30.45 "HgN/A
4:00 am54 °FClear.10 mph63%30.45 "Hg10 mi
3:00 am55 °FPassing clouds.13 mph59%30.45 "HgN/A
2:00 am55 °FPassing clouds.12 mph59%30.45 "HgN/A
Weather by CustomWeather, © 2017

See weather overviewHow to use our weather pages